Flag for Poland Weather past 2 weeks in Lódz, Poland

Now
61 °F

Fog.


Feels Like: 61 °F
Forecast: 51 / 57 °F
Wind: 1 mph from Southwest

Location: Lodz

Current Time: Sep 21, 2014 at 8:11:18 PM

Latest Report: Sep 21, 2014 at 7:00 PM


Visibility: 4 mi

Pressure: 29.75 "Hg

Humidity: 92%

Dew point: 59 °F

Location of LódzLocation

Historic Weather in Lódz — Graph

°F

Lódz temperature yesterday

Maximum temperature yesterday: 70 °F (at 3:00 PM)
Minimum temperature yesterday: 56 °F (at 7:00 AM)
Average temperature yesterday: 61 °F

Past Weeks' High & Low Weather Summary

 TemperatureHumidityPressure
High77 °F (Sep 8, 1:00 PM)99% (Sep 21, 12:00 AM)30.21 "Hg (Sep 21, 12:00 AM)
Low48 °F (Sep 10, 5:00 AM)40% (Sep 7, 6:00 PM)29.76 "Hg (Sep 21, 6:00 PM)
Average62 °F77%30.04 "Hg
* Reported Sep 6 6:00 PM — Sep 21 6:00 PM, Lódz, Weather by CustomWeather, © 2014

Note: Actual official high and low records may vary slightly from our data, if they occured in-between our weather recording intervals... More about our weather records

Advertising

Lódz weather history for previous 24 hours

 ConditionsComfort  
Time TempWeatherWind HumidityBarometerVisibility
6:00 PM
Sep 21
63 °FOvercast.2 mph89%29.76 "Hg7 mi
5:00 PM64 °FOvercast.2 mph88%29.76 "Hg7 mi
4:00 PM65 °FSprinkles. Overcast.3 mph86%29.77 "Hg6 mi
3:00 PM66 °FOvercast.5 mph89%29.78 "Hg6 mi
2:00 PM65 °FOvercast.5 mph85%29.79 "Hg8 mi
1:00 PM64 °FLow clouds.3 mph92%29.81 "Hg8 mi
12:00 PM64 °FOvercast.3 mph89%29.81 "Hg7 mi
11:00 AM63 °FLow clouds.3 mph90%29.82 "Hg8 mi
10:00 AM62 °FFog.2 mph95%29.83 "Hg6 mi
9:00 AM58 °FLow clouds.2 mph98%29.83 "Hg2 mi
8:00 AM56 °FLight rain. Low clouds.2 mph99%29.84 "Hg1 mi
7:00 AM55 °FLight rain. Low clouds.2 mph99%29.85 "Hg1 mi
6:00 AM54 °FSprinkles. Low clouds.N/A99%29.85 "Hg1 mi
5:00 AM54 °FFog.2 mph99%29.87 "Hg0 mi
4:00 AM53 °FFog.2 mph99%29.88 "Hg0 mi
3:00 AM53 °FFog.3 mph99%29.89 "Hg0 mi
2:00 AM54 °FFog.2 mph99%29.89 "Hg0 mi
1:00 AM54 °FFog.2 mph98%29.90 "Hg0 mi
12:00 AM57 °FFog.3 mph99%29.90 "Hg2 mi
11:00 PM
Sep 20
58 °FFog.3 mph98%29.90 "Hg2 mi
10:00 PM58 °FFog.3 mph97%29.92 "Hg5 mi
9:00 PM60 °FFog.2 mph96%29.92 "Hg5 mi
8:00 PM62 °FFog.2 mph88%29.91 "Hg5 mi
Weather by CustomWeather, © 2014

See weather overviewHow to use our weather pages